User: anonymous
Location: Caltech
(34.1382°N, 118.1253°W)
Time: 13:51:06
(UTC-07:00)
Language:

GPS 2-04 Rocket1 - Orbit

View from above orbital plane
View from above orbital plane
View from above satellite
View from above satellite

Ground track
Ground track

The orbit data is extracted from the following two-line orbital elements,

1 20303U 89085B   14209.07375903  .00003316  00000-0  16001-3 0  8339
2 20303 035.6340 099.7923 0141393 274.1660 193.3337 15.09935470340073
Epoch (UTC): 28 July 2014 01:46:12
Eccentricity: 0.0141393
inclination: 35.6340°
perigee height: 438 km
apogee height: 634 km
right ascension of ascending node: 99.7923°
argument of perigee: 274.1660°
revolutions per day: 15.09935470
mean anomaly at epoch: 193.3337°
orbit number at epoch: 34007

The dashed part of the orbit path shows where the satellite is in the earth's shadow,  

DLR